Regional Weather Roundup
Issued by NWS

Home | Current Version | Previous Version | Text Only | Print | Product List | Glossary Off
Versions: 1 2 3 4 5 6 7 8 9 10 11 12 13 14 15 16 17 18 19 20 21 22 23 24 25 26 27 28 29 30 31 32 33 34 35 36 37 38 39 40 41 42 43 44 45 46 47 48 49 50

744
ASUS43 KIND 250009
RWRIN

WEATHER ROUNDUP FOR INDIANA
NATIONAL WEATHER SERVICE INDIANAPOLIS IN
800 PM EDT SAT JUN 24 2017

NOTE: "FAIR" INDICATES FEW OR NO CLOUDS BELOW 12,000 FEET WITH NO
SIGNIFICANT WEATHER AND/OR OBSTRUCTIONS TO VISIBILITY.

* - STATION DOES NOT REPORT WEATHER SUCH AS PRECIPITATION OR FOG.

+ - STATION NOT QUALITY CONTROLLED BY THE NATIONAL WEATHER SERVICE.
    USE DATA WITH CAUTION...ESPECIALLY DEWPOINT AND RELATIVE
    HUMIDITY OBSERVATIONS.

INZ001>003-010>013-019-020-250100-
NORTHWEST INDIANA

CITY           SKY/WX    TMP DP  RH WIND       PRES   REMARKS
GARY /AIRPORT/ MOSUNNY   73  36  25 W21       30.02R
KNOX *+        MOSUNNY   72  34  25 W14       30.00S
LA PORTE +     SUNNY     71  46  40 NW8       30.01R
MICHIGAN CITY+ SUNNY     70  46  43 W8        30.01R
MONTICELLO +   MOSUNNY   71  46  40 W13       30.02S
6HR MIN TEMP:  71; 6HR MAX TEMP:  74;

VALPARAISO     SUNNY     73  44  35 W13G24    30.01R
6HR MIN TEMP:  72; 6HR MAX TEMP:  77;


$$

LMZ046-743>745-250100-
SOUTHERN LAKE MICHIGAN

STATION/POSITION TIME  TEMP    WIND        PRES    WAVE
                       AIR SEA DIR/SP/G            HT
                 (UTC) (F)     (DEG/KT/KT) (MB)    (FT)
BURNS HARBOR     2340   69     280/ 15/ 18 1016.3R
MICHIGAN CITY    2340   69     260/ 19/ 22   N/A
5NW MICH CITY    0000   69 68  280/ 14/ 17   N/A     3

$$

INZ004-005-014>016-021>024-250100-
NORTH CENTRAL INDIANA

CITY           SKY/WX    TMP DP  RH WIND       PRES   REMARKS
GOSHEN         MOSUNNY   70  46  42 NW12      30.00R
6HR MIN TEMP:  69; 6HR MAX TEMP:  75;

LOGANSPORT +   MOSUNNY   70  48  46 W10G16    30.03S
PERU/GRISSOM   SUNNY     71  49  44 W15       30.00R
6HR MIN TEMP:  71; 6HR MAX TEMP:  75;

ROCHESTER +    SUNNY     73  43  33 W14G22    30.02R
SOUTH BEND     SUNNY     68  48  48 NW10      30.00R
6HR MIN TEMP:  68; 6HR MAX TEMP:  74;

WARSAW +       PTSUNNY   70  50  49 W8        30.00R

$$

INZ006>009-017-018-025>027-250100-
NORTHEAST INDIANA

CITY           SKY/WX    TMP DP  RH WIND       PRES   REMARKS
AUBURN +       MOSUNNY   72  50  46 NW8       30.00R
FORT WAYNE     MOSUNNY   72  49  44 W10       30.00R
6HR MIN TEMP:  72; 6HR MAX TEMP:  76;

HUNTINGTON +   MOSUNNY   69  49  50 W8        30.01R
6HR MIN TEMP:  69; 6HR MAX TEMP:  74;

KENDALLVILLE + SUNNY     70  48  45 NW9G16    30.00R

$$

INZ028-029-035-036-043>045-051>053-250100-
WEST CENTRAL INDIANA

CITY           SKY/WX    TMP DP  RH WIND       PRES   REMARKS
CRAWFORDSVL +  MOSUNNY   69  50  50 W9        30.06S
6HR MIN TEMP:  68; 6HR MAX TEMP:  73;

GREENCASTLE +  SUNNY     70  46  43 W5        30.07R
LAFAYETTE      MOSUNNY   70  48  45 W12       30.03R
6HR MIN TEMP:  70; 6HR MAX TEMP:  74;

TERRE HAUTE    MOSUNNY   74  48  39 W7        30.06S
6HR MIN TEMP:  73; 6HR MAX TEMP:  76;


$$

INZ030>032-037>040-046>048-054>057-064-065-250100-
CENTRAL INDIANA

CITY           SKY/WX    TMP DP  RH WIND       PRES   REMARKS
CP ATTERBURY + SUNNY     72  50  46 W6        30.06R
COLUMBUS       SUNNY     73  46  38 W14G21    30.05R
FRANKFORT +    MOSUNNY   73  50  44 NW9       30.06S
6HR MIN TEMP:  73; 6HR MAX TEMP:  77;

GREENWOOD *+   SUNNY     73  49  42 NW12G33   30.05S
6HR MIN TEMP:  73; 6HR MAX TEMP:  76;

INDIANAPOLIS   MOSUNNY   72  46  39 NW15      30.05R
6HR MIN TEMP:  72; 6HR MAX TEMP:  77;

-EAGLE CREEK   SUNNY     72  46  39 NW13      30.05R
6HR MIN TEMP:  72; 6HR MAX TEMP:  76;

KOKOMO +       SUNNY     71  49  45 W17G25    30.04R
6HR MIN TEMP:  71; 6HR MAX TEMP:  75;

MARION +       SUNNY     70  48  46 W14       30.04R
MT COMFORT *+  SUNNY     72  48  43 NW14G22   30.05R
SHELBYVILLE    MOSUNNY   74  50  42 NW12      30.04R
6HR MIN TEMP:  74; 6HR MAX TEMP:  79;

ZIONSVILLE +   MOSUNNY   69  49  49 W6        30.06S
6HR MIN TEMP:  69; 6HR MAX TEMP:  73;


$$

INZ033-034-041-042-049-050-058-059-250100-
EAST CENTRAL INDIANA

CITY           SKY/WX    TMP DP  RH WIND       PRES   REMARKS
MUNCIE         SUNNY     73  49  42 W16G22    30.03R
6HR MIN TEMP:  73; 6HR MAX TEMP:  77;

RICHMOND +     SUNNY     72  52  49 NW10      30.03R

$$

INZ060-061-067>069-081>083-085>088-250100-
SOUTHWEST INDIANA

CITY           SKY/WX    TMP DP  RH WIND       PRES   REMARKS
EVANSVILLE     PTSUNNY   75  51  43 NW6       30.09R
6HR MIN TEMP:  74; 6HR MAX TEMP:  80;

HUNTINGBURG *+ MOSUNNY   73  55  53 NW7       30.08R
6HR MIN TEMP:  73; 6HR MAX TEMP:  79;

WASHINGTON +   CLOUDY    73  50  43 NW8       30.08R
6HR MIN TEMP:  73; 6HR MAX TEMP:  77;


$$

INZ062-063-066-070>080-084-089>092-250100-
SOUTH CENTRAL AND SOUTHEAST INDIANA

CITY           SKY/WX    TMP DP  RH WIND       PRES   REMARKS
BLOOMINGTON    SUNNY     72  50  45 NW6       30.07R
6HR MIN TEMP:  72; 6HR MAX TEMP:  77;

MADISON *+     MOSUNNY   73  54  49 W7        30.07R
NORTH VERNON + MOSUNNY   73  54  49 W10       30.05R
SEYMOUR +      CLOUDY    77  54  44 W10G16    30.05R

$$





USA.gov is the U.S. government's official web portal to all federal, state and local government web resources and services.